,,Stat6,,Stat2,,Stat8,,Stat9,,Stat10,,Wind1,,Wind1,
time,status,PA1M_AVG,status,PR1M_SUM,status,RH1M_AVG,status,SR1M_AVG,status,TA1M_AVG,status,W1dAve1m,status,W1sAve1m,
2003-12-30, 00:00:00,VALID,920.696,VALID,0,VALID,94.0733,VALID,-0.0509425,VALID,19.0114,VALID,109,VALID,1.7474,
2003-12-30, 00:01:00,VALID,920.669,VALID,0,VALID,93.8927,VALID,-0.0509425,VALID,19.0241,VALID,127,VALID,1.24876,
2003-12-30, 00:02:00,VALID,920.662,VALID,0,VALID,93.5723,VALID,-0.101885,VALID,19.0727,VALID,122,VALID,1.79818,
2003-12-30, 00:03:00,VALID,920.655,VALID,0,VALID,93.2048,VALID,-0.0849042,VALID,19.1212,VALID,113,VALID,1.12954,
2003-12-30, 00:04:00,VALID,920.653,VALID,0,VALID,92.7407,VALID,-0.0849042,VALID,19.1438,VALID,120,VALID,1.7431,
2003-12-30, 00:05:00,VALID,920.65,VALID,0,VALID,92.3744,VALID,-0.101885,VALID,19.1795,VALID,109,VALID,1.46522,
2003-12-30, 00:06:00,VALID,920.648,VALID,0,VALID,92.3516,VALID,-0.0679233,VALID,19.2183,VALID,78,VALID,0.927734,
2003-12-30, 00:07:00,VALID,920.643,VALID,0,VALID,92.4215,VALID,-0.101885,VALID,19.2218,VALID,90,VALID,0.955529,
2003-12-30, 00:08:00,VALID,920.646,VALID,0,VALID,92.4736,VALID,0.0509425,VALID,19.2203,VALID,105,VALID,0.98316,
2003-12-30, 00:09:00,VALID,920.643,VALID,0,VALID,92.5601,VALID,0.0169808,VALID,19.1751,VALID,86,VALID,1.16761,
2003-12-30, 00:10:00,VALID,920.624,VALID,0,VALID,92.7559,VALID,0.0169808,VALID,19.1523,VALID,91,VALID,1.34502,
2003-12-30, 00:11:00,VALID,920.607,VALID,0,VALID,92.5232,VALID,0.0679233,VALID,19.1652,VALID,108,VALID,1.53652,
2003-12-30, 00:12:00,VALID,920.598,VALID,0,VALID,92.1417,VALID,0.0169808,VALID,19.2173,VALID,105,VALID,1.49668,
2003-12-30, 00:13:00,VALID,920.59,VALID,0,VALID,91.1601,VALID,0,VALID,19.3107,VALID,118,VALID,1.7939,
2003-12-30, 00:14:00,VALID,920.581,VALID,0,VALID,90.5827,VALID,0,VALID,19.4302,VALID,105,VALID,1.74273,
2003-12-30, 00:15:00,VALID,920.581,VALID,0,VALID,90.3653,VALID,0,VALID,19.495,VALID,118,VALID,1.27237,
2003-12-30, 00:16:00,VALID,920.566,VALID,0,VALID,90.4569,VALID,0.0169808,VALID,19.4945,VALID,129,VALID,1.50838,
2003-12-30, 00:17:00,VALID,920.563,VALID,0,VALID,90.4085,VALID,0.0169808,VALID,19.5368,VALID,127,VALID,1.90714,
2003-12-30, 00:18:00,VALID,920.536,VALID,0,VALID,90.0957,VALID,0,VALID,19.5656,VALID,124,VALID,1.60992,
2003-12-30, 00:19:00,VALID,920.512,VALID,0,VALID,90.1784,VALID,0.0339617,VALID,19.5852,VALID,125,VALID,1.746,
2003-12-30, 00:20:00,VALID,920.508,VALID,0,VALID,90.1618,VALID,-0.0169808,VALID,19.6019,VALID,135,VALID,1.88932,
2003-12-30, 00:21:00,VALID,920.495,VALID,0,VALID,89.8961,VALID,0.0169808,VALID,19.6341,VALID,121,VALID,1.72372,
2003-12-30, 00:22:00,VALID,920.505,VALID,0,VALID,89.8427,VALID,-0.0169808,VALID,19.6307,VALID,117,VALID,1.36939,
2003-12-30, 00:23:00,VALID,920.479,VALID,0,VALID,89.8414,VALID,-0.118866,VALID,19.6292,VALID,96,VALID,1.29746,
2003-12-30, 00:24:00,VALID,920.467,VALID,0,VALID,89.9152,VALID,-0.118866,VALID,19.6254,VALID,116,VALID,1.53817,
2003-12-30, 00:25:00,VALID,920.446,VALID,0,VALID,89.9024,VALID,-0.101885,VALID,19.6222,VALID,133,VALID,2.17969,
2003-12-30, 00:26:00,VALID,920.434,VALID,0,VALID,89.4485,VALID,-0.0849042,VALID,19.6992,VALID,126,VALID,1.80859,
2003-12-30, 00:27:00,VALID,920.43,VALID,0,VALID,89.2514,VALID,-0.0509425,VALID,19.7576,VALID,114,VALID,1.42188,
2003-12-30, 00:28:00,VALID,920.426,VALID,0,VALID,89.2755,VALID,-0.0849042,VALID,19.7646,VALID,111,VALID,1.52121,
2003-12-30, 00:29:00,VALID,920.41,VALID,0,VALID,89.4014,VALID,-0.118866,VALID,19.7348,VALID,112,VALID,1.15625,
2003-12-30, 00:30:00,VALID,920.393,VALID,0,VALID,89.5197,VALID,-0.101885,VALID,19.7057,VALID,122,VALID,1.16672,
2003-12-30, 00:31:00,VALID,920.387,VALID,0,VALID,89.4269,VALID,-0.101885,VALID,19.6995,VALID,116,VALID,1.59211,
2003-12-30, 00:32:00,VALID,920.377,VALID,0,VALID,89.4103,VALID,-0.0849042,VALID,19.6699,VALID,109,VALID,1.37732,
2003-12-30, 00:33:00,VALID,920.367,VALID,0,VALID,89.6825,VALID,-0.101885,VALID,19.6481,VALID,113,VALID,1.23783,
2003-12-30, 00:34:00,VALID,920.347,VALID,0,VALID,89.835,VALID,-0.0849042,VALID,19.6153,VALID,113,VALID,1.07871,
2003-12-30, 00:35:00,VALID,920.359,VALID,0,VALID,89.9215,VALID,-0.101885,VALID,19.5927,VALID,115,VALID,0.844122,
2003-12-30, 00:36:00,VALID,920.349,VALID,0,VALID,89.863,VALID,-0.101885,VALID,19.5738,VALID,111,VALID,0.926282,
2003-12-30, 00:37:00,VALID,920.351,VALID,0,VALID,90.1212,VALID,-0.118866,VALID,19.5348,VALID,134,VALID,1.05051,
2003-12-30, 00:38:00,VALID,920.36,VALID,0,VALID,90.3119,VALID,0,VALID,19.5236,VALID,151,VALID,1.21621,
2003-12-30, 00:39:00,VALID,920.36,VALID,0,VALID,90.2318,VALID,-0.0169808,VALID,19.5489,VALID,150,VALID,1.26621,
2003-12-30, 00:40:00,VALID,920.354,VALID,0,VALID,90.0728,VALID,0,VALID,19.5788,VALID,144,VALID,1.01101,
2003-12-30, 00:41:00,VALID,920.352,VALID,0,VALID,90.0856,VALID,0,VALID,19.5879,VALID,144,VALID,1.12991,
2003-12-30, 00:42:00,VALID,920.349,VALID,0,VALID,90.2458,VALID,0.0169808,VALID,19.5817,VALID,145,VALID,1.43075,
2003-12-30, 00:43:00,VALID,920.339,VALID,0,VALID,90.3462,VALID,0,VALID,19.546,VALID,139,VALID,1.4093,
2003-12-30, 00:44:00,VALID,920.322,VALID,0,VALID,90.6425,VALID,0.0169808,VALID,19.4908,VALID,151,VALID,1.06377,
2003-12-30, 00:45:00,VALID,920.309,VALID,0,VALID,90.9922,VALID,0,VALID,19.4459,VALID,150,VALID,1.28088,
2003-12-30, 00:46:00,VALID,920.295,VALID,0,VALID,91.3737,VALID,0.0169808,VALID,19.4205,VALID,148,VALID,1.15551,
2003-12-30, 00:47:00,VALID,920.292,VALID,0,VALID,91.4309,VALID,0,VALID,19.4016,VALID,138,VALID,0.629278,
2003-12-30, 00:48:00,VALID,920.278,VALID,0,VALID,91.5733,VALID,0,VALID,19.3691,VALID,133,VALID,1.67355,
2003-12-30, 00:49:00,VALID,920.275,VALID,0,VALID,91.6967,VALID,0.0339617,VALID,19.3169,VALID,143,VALID,0.931548,
2003-12-30, 00:50:00,VALID,920.285,VALID,0,VALID,91.7895,VALID,0.0169808,VALID,19.3167,VALID,132,VALID,1.53333,
2003-12-30, 00:51:00,VALID,920.286,VALID,0,VALID,91.7514,VALID,0,VALID,19.3296,VALID,144,VALID,0.727834,
2003-12-30, 00:52:00,VALID,920.292,VALID,0,VALID,91.7857,VALID,0.0169808,VALID,19.3135,VALID,144,VALID,0.743641,
2003-12-30, 00:53:00,VALID,920.28,VALID,0,VALID,91.9001,VALID,0.0169808,VALID,19.3008,VALID,144,VALID,1.30851,
2003-12-30, 00:54:00,VALID,920.25,VALID,0,VALID,92.2397,VALID,-0.0169808,VALID,19.272,VALID,137,VALID,1.15586,
2003-12-30, 00:55:00,VALID,920.226,VALID,0,VALID,92.3566,VALID,0,VALID,19.2325,VALID,138,VALID,1.24734,
2003-12-30, 00:56:00,VALID,920.195,VALID,0,VALID,92.3859,VALID,-0.0169808,VALID,19.2138,VALID,134,VALID,1.07631,
2003-12-30, 00:57:00,VALID,920.16,VALID,0,VALID,92.7547,VALID,0,VALID,19.1716,VALID,135,VALID,1.85347,
2003-12-30, 00:58:00,VALID,920.139,VALID,0,VALID,92.7127,VALID,-0.0169808,VALID,19.1619,VALID,127,VALID,1.53449,
2003-12-30, 00:59:00,VALID,920.138,VALID,0,VALID,92.8716,VALID,0,VALID,19.1361,VALID,130,VALID,1.40566,
2003-12-30, 01:00:00,VALID,920.131,VALID,0,VALID,92.8882,VALID,0,VALID,19.1334,VALID,129,VALID,1.06441,
2003-12-30, 01:01:00,VALID,920.124,VALID,0,VALID,92.9022,VALID,0,VALID,19.0974,VALID,125,VALID,1.34983,
2003-12-30, 01:02:00,VALID,920.135,VALID,0,VALID,93.3409,VALID,0.0169808,VALID,19.075,VALID,126,VALID,1.72191,
2003-12-30, 01:03:00,VALID,920.122,VALID,0,VALID,93.2785,VALID,0,VALID,19.0653,VALID,128,VALID,1.63225,
2003-12-30, 01:04:00,VALID,920.093,VALID,0,VALID,93.4324,VALID,0,VALID,19.0584,VALID,132,VALID,1.48952,
2003-12-30, 01:05:00,VALID,920.086,VALID,0,VALID,93.5316,VALID,-0.0169808,VALID,19.0589,VALID,133,VALID,1.97965,
2003-12-30, 01:06:00,VALID,920.057,VALID,0,VALID,93.5888,VALID,0,VALID,19.0429,VALID,129,VALID,1.8058,
2003-12-30, 01:07:00,VALID,920.03,VALID,0,VALID,93.8279,VALID,0,VALID,19.0166,VALID,125,VALID,1.70401,
2003-12-30, 01:08:00,VALID,920.03,VALID,0,VALID,94.0008,VALID,0,VALID,19.0074,VALID,128,VALID,1.46094,
2003-12-30, 01:09:00,VALID,920.008,VALID,0,VALID,93.9411,VALID,0,VALID,19.004,VALID,137,VALID,1.28664,
2003-12-30, 01:10:00,VALID,920,VALID,0,VALID,94.0987,VALID,0,VALID,18.9948,VALID,140,VALID,1.43998,
2003-12-30, 01:11:00,VALID,919.99,VALID,0,VALID,94.1623,VALID,0.0169808,VALID,19.0012,VALID,134,VALID,1.6224,
2003-12-30, 01:12:00,VALID,919.99,VALID,0,VALID,94.0708,VALID,0.0169808,VALID,18.9781,VALID,124,VALID,1.38121,
2003-12-30, 01:13:00,VALID,919.988,VALID,0,VALID,94.231,VALID,-0.0169808,VALID,18.962,VALID,127,VALID,1.62552,
2003-12-30, 01:14:00,VALID,919.959,VALID,0,VALID,94.2679,VALID,0.0339617,VALID,18.9389,VALID,142,VALID,1.33635,
2003-12-30, 01:15:00,VALID,919.935,VALID,0,VALID,94.5527,VALID,0.0169808,VALID,18.9064,VALID,137,VALID,1.17631,
2003-12-30, 01:16:00,VALID,919.917,VALID,0,VALID,94.7307,VALID,-0.0169808,VALID,18.9108,VALID,139,VALID,1.5799,
2003-12-30, 01:17:00,VALID,919.887,VALID,0,VALID,94.6099,VALID,0,VALID,18.9103,VALID,127,VALID,1.54859,
2003-12-30, 01:18:00,VALID,919.862,VALID,0,VALID,94.4433,VALID,0,VALID,18.8914,VALID,119,VALID,1.48214,
2003-12-30, 01:19:00,VALID,919.835,VALID,0,VALID,94.6379,VALID,-0.0169808,VALID,18.8557,VALID,118,VALID,1.29776,
2003-12-30, 01:20:00,VALID,919.8,VALID,0,VALID,94.4052,VALID,0,VALID,18.8202,VALID,89,VALID,1.12128,
2003-12-30, 01:21:00,VALID,919.774,VALID,0,VALID,94.8681,VALID,0,VALID,18.7812,VALID,118,VALID,1.40934,
2003-12-30, 01:22:00,VALID,919.766,VALID,0,VALID,95.0613,VALID,0,VALID,18.7747,VALID,126,VALID,1.61771,
2003-12-30, 01:23:00,VALID,919.757,VALID,0,VALID,94.985,VALID,0,VALID,18.7879,VALID,121,VALID,1.41235,
2003-12-30, 01:24:00,VALID,919.752,VALID,0,VALID,94.9164,VALID,-0.0169808,VALID,18.7978,VALID,124,VALID,1.5209,
2003-12-30, 01:25:00,VALID,919.756,VALID,0,VALID,95.1109,VALID,0,VALID,18.8333,VALID,128,VALID,1.87409,
2003-12-30, 01:26:00,VALID,919.729,VALID,0,VALID,94.8503,VALID,0,VALID,18.8785,VALID,127,VALID,1.45,
2003-12-30, 01:27:00,VALID,919.721,VALID,0,VALID,94.8566,VALID,0,VALID,18.8875,VALID,136,VALID,1.44695,
2003-12-30, 01:28:00,VALID,919.698,VALID,0,VALID,94.8197,VALID,0,VALID,18.9332,VALID,149,VALID,1.26113,
2003-12-30, 01:29:00,VALID,919.676,VALID,0,VALID,94.643,VALID,0,VALID,18.9722,VALID,128,VALID,1.32779,
2003-12-30, 01:30:00,VALID,919.652,VALID,0,VALID,94.4294,VALID,-0.0169808,VALID,18.9985,VALID,128,VALID,1.39722,
2003-12-30, 01:31:00,VALID,919.65,VALID,0,VALID,94.259,VALID,0,VALID,18.9821,VALID,131,VALID,1.123,
2003-12-30, 01:32:00,VALID,919.622,VALID,0,VALID,94.3378,VALID,-0.101885,VALID,18.987,VALID,136,VALID,1.32496,
2003-12-30, 01:33:00,VALID,919.621,VALID,0,VALID,94.5692,VALID,-0.101885,VALID,18.9607,VALID,140,VALID,1.16292,
2003-12-30, 01:34:00,VALID,919.613,VALID,0,VALID,94.6226,VALID,-0.101885,VALID,18.9671,VALID,136,VALID,1.54306,
2003-12-30, 01:35:00,VALID,919.615,VALID,0,VALID,94.4802,VALID,-0.118866,VALID,18.9478,VALID,134,VALID,1.13709,
2003-12-30, 01:36:00,VALID,919.598,VALID,0,VALID,94.6773,VALID,-0.101885,VALID,18.9381,VALID,146,VALID,1.51781,
2003-12-30, 01:37:00,VALID,919.57,VALID,0,VALID,94.6659,VALID,-0.101885,VALID,18.9609,VALID,145,VALID,1.2301,
2003-12-30, 01:38:01,VALID,919.552,VALID,0,VALID,94.4522,VALID,-0.0169808,VALID,18.9659,VALID,119,VALID,0.761719,
2003-12-30, 01:39:00,VALID,919.529,VALID,0,VALID,94.5107,VALID,0,VALID,18.9433,VALID,136,VALID,1.2927,
2003-12-30, 01:40:00,VALID,919.499,VALID,0,VALID,94.7333,VALID,-0.0509425,VALID,18.9235,VALID,142,VALID,1.62674,
2003-12-30, 01:41:00,VALID,919.477,VALID,0,VALID,94.7523,VALID,0,VALID,18.9369,VALID,140,VALID,1.58556,
2003-12-30, 01:42:00,VALID,919.468,VALID,0,VALID,94.6493,VALID,0,VALID,18.9595,VALID,130,VALID,1.32688,
2003-12-30, 01:43:00,VALID,919.473,VALID,0,VALID,94.5196,VALID,-0.0339617,VALID,18.9232,VALID,126,VALID,1.38844,
2003-12-30, 01:44:01,VALID,919.47,VALID,0,VALID,94.7396,VALID,0,VALID,18.9076,VALID,134,VALID,1.36886,
2003-12-30, 01:45:00,VALID,919.485,VALID,0,VALID,94.6697,VALID,-0.0339617,VALID,18.8882,VALID,139,VALID,1.14748,
2003-12-30, 01:46:00,VALID,919.466,VALID,0,VALID,94.9545,VALID,0,VALID,18.8817,VALID,138,VALID,1.54288,
2003-12-30, 01:47:00,VALID,919.463,VALID,0,VALID,95.0016,VALID,0,VALID,18.885,VALID,149,VALID,0.698289,
2003-12-30, 01:48:00,VALID,919.45,VALID,0,VALID,95.0563,VALID,0,VALID,18.8951,VALID,140,VALID,1.26639,
2003-12-30, 01:49:00,VALID,919.442,VALID,0,VALID,94.9825,VALID,-0.0169808,VALID,18.8887,VALID,140,VALID,1.23765,
2003-12-30, 01:50:00,VALID,919.438,VALID,0,VALID,94.9329,VALID,0,VALID,18.8949,VALID,139,VALID,1.32576,
2003-12-30, 01:51:00,VALID,919.435,VALID,0,VALID,95.0995,VALID,0,VALID,18.9076,VALID,148,VALID,2.18586,
2003-12-30, 01:52:00,VALID,919.422,VALID,0,VALID,94.9545,VALID,0,VALID,18.9535,VALID,147,VALID,1.70393,
2003-12-30, 01:53:01,VALID,919.423,VALID,0,VALID,94.7905,VALID,-0.118866,VALID,18.9738,VALID,143,VALID,1.60882,
2003-12-30, 01:54:00,VALID,919.417,VALID,0,VALID,94.7676,VALID,-0.101885,VALID,18.9872,VALID,144,VALID,1.12795,
2003-12-30, 01:55:01,VALID,919.417,VALID,0,VALID,94.7473,VALID,-0.152827,VALID,18.9835,VALID,142,VALID,1.67312,
2003-12-30, 01:56:00,VALID,919.393,VALID,0,VALID,94.8197,VALID,-0.101885,VALID,18.9897,VALID,144,VALID,1.98456,
2003-12-30, 01:57:00,VALID,919.379,VALID,0,VALID,94.6201,VALID,-0.101885,VALID,19.0026,VALID,144,VALID,1.20126,
2003-12-30, 01:58:00,VALID,919.338,VALID,0,VALID,94.3403,VALID,-0.135847,VALID,19.0064,VALID,115,VALID,1.21205,
2003-12-30, 01:59:00,VALID,919.321,VALID,0,VALID,94.2234,VALID,-0.101885,VALID,18.9616,VALID,124,VALID,1.02017,
2003-12-30, 02:00:01,VALID,919.283,VALID,0,VALID,94.6646,VALID,-0.118866,VALID,18.9187,VALID,141,VALID,1.81193,
2003-12-30, 02:01:00,VALID,919.289,VALID,0,VALID,94.7091,VALID,-0.101885,VALID,18.9286,VALID,128,VALID,0.986607,
2003-12-30, 02:02:00,VALID,919.269,VALID,0,VALID,94.5985,VALID,-0.118866,VALID,18.9289,VALID,125,VALID,1.26786,
2003-12-30, 02:03:01,VALID,919.29,VALID,0,VALID,94.4675,VALID,-0.101885,VALID,18.9321,VALID,118,VALID,1.21094,
2003-12-30, 02:04:01,VALID,919.28,VALID,0,VALID,94.3594,VALID,-0.101885,VALID,18.906,VALID,119,VALID,1.22517,
2003-12-30, 02:05:00,VALID,919.277,VALID,0,VALID,94.6226,VALID,-0.0849042,VALID,18.8961,VALID,135,VALID,1.42042,
2003-12-30, 02:06:00,VALID,919.273,VALID,0,VALID,94.568,VALID,-0.101885,VALID,18.8998,VALID,125,VALID,1.34051,
2003-12-30, 02:07:01,VALID,919.257,VALID,0,VALID,94.7066,VALID,-0.101885,VALID,18.9152,VALID,128,VALID,1.57984,
2003-12-30, 02:08:01,VALID,919.251,VALID,0,VALID,94.5438,VALID,0,VALID,18.9274,VALID,129,VALID,1.2963,
2003-12-30, 02:09:00,VALID,919.238,VALID,0,VALID,94.6125,VALID,0,VALID,18.9274,VALID,135,VALID,1.83285,
2003-12-30, 02:10:00,VALID,919.228,VALID,0,VALID,94.4764,VALID,0,VALID,18.9369,VALID,143,VALID,1.46439,
2003-12-30, 02:11:01,VALID,919.206,VALID,0,VALID,94.4815,VALID,-0.0169808,VALID,18.9535,VALID,121,VALID,1.33984,
2003-12-30, 02:12:00,VALID,919.193,VALID,0,VALID,94.3022,VALID,-0.0169808,VALID,18.9595,VALID,131,VALID,1.13477,
2003-12-30, 02:13:01,VALID,919.182,VALID,0,VALID,94.3022,VALID,0,VALID,18.9627,VALID,142,VALID,1.09051,
2003-12-30, 02:14:00,VALID,919.154,VALID,0,VALID,94.3238,VALID,0,VALID,18.9463,VALID,145,VALID,1.26618,
2003-12-30, 02:15:00,VALID,919.112,VALID,0,VALID,94.4255,VALID,0.0169808,VALID,18.9461,VALID,140,VALID,1.56922,
2003-12-30, 02:16:01,VALID,919.083,VALID,0,VALID,94.3136,VALID,0,VALID,18.9687,VALID,144,VALID,1.16332,
2003-12-30, 02:17:01,VALID,919.069,VALID,0,VALID,93.9461,VALID,0,VALID,18.9689,VALID,115,VALID,1.09435,
2003-12-30, 02:18:01,VALID,919.062,VALID,0,VALID,93.8152,VALID,0.0169808,VALID,18.9366,VALID,102,VALID,1.09914,
2003-12-30, 02:19:00,VALID,919.065,VALID,0,VALID,93.964,VALID,0.0169808,VALID,18.9011,VALID,113,VALID,1.06688,
2003-12-30, 02:20:00,VALID,919.06,VALID,0,VALID,94.2145,VALID,0,VALID,18.8721,VALID,115,VALID,1.09956,
2003-12-30, 02:21:00,VALID,919.044,VALID,0,VALID,94.4141,VALID,0,VALID,18.849,VALID,124,VALID,1.27118,
2003-12-30, 02:22:00,VALID,919.022,VALID,0,VALID,94.2755,VALID,0.0169808,VALID,18.8529,VALID,133,VALID,1.59593,
2003-12-30, 02:23:00,VALID,918.994,VALID,0,VALID,94.0542,VALID,-0.101885,VALID,18.873,VALID,133,VALID,1.40122,
2003-12-30, 02:24:00,VALID,918.976,VALID,0,VALID,93.5469,VALID,-0.101885,VALID,18.8991,VALID,126,VALID,1.26524,
2003-12-30, 02:25:00,VALID,918.945,VALID,0,VALID,93.7389,VALID,-0.101885,VALID,18.9028,VALID,131,VALID,1.33398,
2003-12-30, 02:26:00,VALID,918.936,VALID,0,VALID,93.9398,VALID,-0.118866,VALID,18.8864,VALID,143,VALID,1.43674,
2003-12-30, 02:27:00,VALID,918.93,VALID,0,VALID,94.2907,VALID,-0.118866,VALID,18.9192,VALID,141,VALID,1.54497,
2003-12-30, 02:28:00,VALID,918.924,VALID,0,VALID,94.0046,VALID,-0.118866,VALID,18.9284,VALID,117,VALID,1.16787,
2003-12-30, 02:29:00,VALID,918.927,VALID,0,VALID,93.8889,VALID,-0.101885,VALID,18.9187,VALID,124,VALID,1.06621,
2003-12-30, 02:30:00,VALID,918.92,VALID,0,VALID,93.922,VALID,-0.101885,VALID,18.9028,VALID,128,VALID,1.2681,
2003-12-30, 02:31:00,VALID,918.9,VALID,0,VALID,93.8164,VALID,-0.101885,VALID,18.8998,VALID,109,VALID,1.24535,
2003-12-30, 02:32:01,VALID,918.875,VALID,0,VALID,93.7401,VALID,-0.101885,VALID,18.8866,VALID,128,VALID,0.920015,
2003-12-30, 02:33:00,VALID,918.844,VALID,0,VALID,93.8253,VALID,-0.101885,VALID,18.8643,VALID,149,VALID,1.1342,
2003-12-30, 02:34:00,VALID,918.828,VALID,0,VALID,94.0873,VALID,-0.118866,VALID,18.8673,VALID,136,VALID,1.86719,
2003-12-30, 02:35:00,VALID,918.814,VALID,0,VALID,93.8813,VALID,-0.101885,VALID,18.9129,VALID,137,VALID,1.58705,
2003-12-30, 02:36:01,VALID,918.809,VALID,0,VALID,93.7847,VALID,-0.101885,VALID,18.9318,VALID,131,VALID,1.4617,
2003-12-30, 02:37:00,VALID,918.792,VALID,0,VALID,93.6028,VALID,-0.101885,VALID,18.9482,VALID,133,VALID,1.50999,
2003-12-30, 02:38:01,VALID,918.779,VALID,0,VALID,93.7007,VALID,0.0679233,VALID,18.9625,VALID,138,VALID,1.84561,
2003-12-30, 02:39:00,VALID,918.77,VALID,0,VALID,93.5443,VALID,0.0339617,VALID,18.9687,VALID,127,VALID,1.45934,
2003-12-30, 02:40:00,VALID,918.754,VALID,0,VALID,93.4375,VALID,0,VALID,18.9821,VALID,112,VALID,1.21535,
2003-12-30, 02:41:01,VALID,918.74,VALID,0,VALID,93.5265,VALID,0.0169808,VALID,18.9336,VALID,93,VALID,1.24609,
2003-12-30, 02:42:01,VALID,918.733,VALID,0,VALID,93.7452,VALID,0,VALID,18.878,VALID,105,VALID,1.17913,
2003-12-30, 02:43:00,VALID,918.726,VALID,0,VALID,93.9411,VALID,0.0169808,VALID,18.8594,VALID,115,VALID,0.999256,
2003-12-30, 02:44:01,VALID,918.716,VALID,0,VALID,93.716,VALID,0.0169808,VALID,18.8231,VALID,102,VALID,0.80069,
2003-12-30, 02:45:00,VALID,918.699,VALID,0,VALID,94.0911,VALID,0,VALID,18.8047,VALID,119,VALID,1.16206,
2003-12-30, 02:46:00,VALID,918.69,VALID,0,VALID,94.3264,VALID,0,VALID,18.7757,VALID,129,VALID,1.49592,
2003-12-30, 02:47:01,VALID,918.668,VALID,0,VALID,94.479,VALID,0,VALID,18.7819,VALID,136,VALID,1.4349,
2003-12-30, 02:48:00,VALID,918.653,VALID,0,VALID,94.4179,VALID,0,VALID,18.8015,VALID,135,VALID,1.31267,
2003-12-30, 02:49:00,VALID,918.655,VALID,0,VALID,94.1471,VALID,0,VALID,18.8139,VALID,116,VALID,1.05996,
2003-12-30, 02:50:00,VALID,918.659,VALID,0,VALID,94.1496,VALID,0,VALID,18.7946,VALID,123,VALID,1.45554,
2003-12-30, 02:51:00,VALID,918.653,VALID,0,VALID,94.292,VALID,0.0169808,VALID,18.798,VALID,138,VALID,1.49891,
2003-12-30, 02:52:00,VALID,918.652,VALID,0,VALID,94.2437,VALID,0,VALID,18.8075,VALID,138,VALID,1.09557,
2003-12-30, 02:53:01,VALID,918.641,VALID,0,VALID,93.9957,VALID,0.0339617,VALID,18.8008,VALID,131,VALID,1.00818,
2003-12-30, 02:54:00,VALID,918.639,VALID,0,VALID,94.4408,VALID,0,VALID,18.7946,VALID,145,VALID,1.52995,
2003-12-30, 02:55:01,VALID,918.65,VALID,0,VALID,94.3581,VALID,0.0339617,VALID,18.8008,VALID,140,VALID,1.2391,
2003-12-30, 02:56:00,VALID,918.64,VALID,0,VALID,94.3887,VALID,0.0169808,VALID,18.801,VALID,139,VALID,1.19866,
2003-12-30, 02:57:01,VALID,918.647,VALID,0,VALID,94.3798,VALID,0,VALID,18.7846,VALID,118,VALID,0.664648,
2003-12-30, 02:58:01,VALID,918.649,VALID,0,VALID,94.3353,VALID,0.0169808,VALID,18.7685,VALID,124,VALID,0.627663,
2003-12-30, 02:59:00,VALID,918.656,VALID,0,VALID,94.2615,VALID,0.0339617,VALID,18.7235,VALID,101,VALID,1.08594,
2003-12-30, 03:00:00,VALID,918.658,VALID,0,VALID,94.3289,VALID,0.0169808,VALID,18.7039,VALID,112,VALID,0.963663,
2003-12-30, 03:01:00,VALID,918.652,VALID,0,VALID,94.6506,VALID,0,VALID,18.6848,VALID,135,VALID,1.0854,
2003-12-30, 03:02:01,VALID,918.635,VALID,0,VALID,94.5781,VALID,0.0169808,VALID,18.7044,VALID,112,VALID,0.834794,
2003-12-30, 03:03:00,VALID,918.608,VALID,0,VALID,94.3861,VALID,0.0169808,VALID,18.6945,VALID,114,VALID,0.870898,
2003-12-30, 03:04:00,VALID,918.584,VALID,0,VALID,94.2475,VALID,0,VALID,18.6848,VALID,107,VALID,0.922569,
2003-12-30, 03:05:01,VALID,918.582,VALID,0,VALID,94.2094,VALID,0.0509425,VALID,18.6714,VALID,107,VALID,0.917969,
2003-12-30, 03:06:01,VALID,918.565,VALID,0,VALID,94.362,VALID,0.0509425,VALID,18.658,VALID,129,VALID,0.792081,
2003-12-30, 03:07:00,VALID,918.554,VALID,0,VALID,94.465,VALID,0.0169808,VALID,18.6749,VALID,128,VALID,1.77782,
2003-12-30, 03:08:00,VALID,918.56,VALID,0,VALID,94.0504,VALID,0.0169808,VALID,18.7551,VALID,154,VALID,1.92901,
2003-12-30, 03:09:01,VALID,918.569,VALID,0,VALID,93.3447,VALID,0,VALID,18.8691,VALID,139,VALID,1.29219,
2003-12-30, 03:10:01,VALID,918.571,VALID,0,VALID,92.7928,VALID,0,VALID,18.9269,VALID,143,VALID,0.740552,
2003-12-30, 03:11:00,VALID,918.557,VALID,0,VALID,92.9187,VALID,0.0339617,VALID,18.9622,VALID,155,VALID,1.45108,
2003-12-30, 03:12:00,VALID,918.545,VALID,0,VALID,92.7216,VALID,0.0509425,VALID,18.9915,VALID,114,VALID,1.13441,
2003-12-30, 03:13:01,VALID,918.517,VALID,0,VALID,92.3961,VALID,0,VALID,18.9885,VALID,69,VALID,0.877725,
2003-12-30, 03:14:00,VALID,918.498,VALID,0,VALID,92.7483,VALID,0,VALID,18.9692,VALID,95,VALID,1.07213,
2003-12-30, 03:15:01,VALID,918.494,VALID,0,VALID,92.8945,VALID,0.0169808,VALID,18.9751,VALID,100,VALID,1.15264,
2003-12-30, 03:16:00,VALID,918.482,VALID,0,VALID,92.7076,VALID,0,VALID,18.991,VALID,101,VALID,1.06284,
2003-12-30, 03:17:01,VALID,918.478,VALID,0,VALID,92.7127,VALID,0.0169808,VALID,19.0305,VALID,105,VALID,1.4791,
2003-12-30, 03:18:00,VALID,918.471,VALID,0,VALID,92.0375,VALID,0.0169808,VALID,19.1108,VALID,96,VALID,1.12233,
2003-12-30, 03:19:01,VALID,918.491,VALID,0,VALID,91.5454,VALID,0.0509425,VALID,19.153,VALID,90,VALID,1.25963,
2003-12-30, 03:20:01,VALID,918.491,VALID,0,VALID,91.4004,VALID,0.0169808,VALID,19.179,VALID,93,VALID,0.960756,
2003-12-30, 03:21:01,VALID,918.489,VALID,0,VALID,91.1753,VALID,0,VALID,19.2017,VALID,113,VALID,0.929276,
2003-12-30, 03:22:00,VALID,918.481,VALID,0,VALID,91.0977,VALID,0,VALID,19.189,VALID,96,VALID,0.850291,
2003-12-30, 03:23:01,VALID,918.485,VALID,0,VALID,91.5377,VALID,-0.0849042,VALID,19.1318,VALID,85,VALID,0.918155,
2003-12-30, 03:24:00,VALID,918.465,VALID,0,VALID,91.7997,VALID,-0.0679233,VALID,19.0868,VALID,91,VALID,0.755208,
2003-12-30, 03:25:01,VALID,918.462,VALID,0,VALID,91.923,VALID,-0.0849042,VALID,19.0479,VALID,63,VALID,0.663872,
2003-12-30, 03:26:00,VALID,918.461,VALID,0,VALID,92.307,VALID,-0.101885,VALID,19.0061,VALID,85,VALID,0.803622,
2003-12-30, 03:27:00,VALID,918.471,VALID,0,VALID,92.4456,VALID,-0.101885,VALID,18.9835,VALID,119,VALID,0.914993,
2003-12-30, 03:28:00,VALID,918.484,VALID,0,VALID,92.3516,VALID,-0.0849042,VALID,18.9219,VALID,112,VALID,0.877725,
2003-12-30, 03:29:00,VALID,918.483,VALID,0,VALID,92.9161,VALID,-0.0849042,VALID,18.8675,VALID,135,VALID,1.09301,
2003-12-30, 03:30:01,VALID,918.493,VALID,0,VALID,92.7953,VALID,-0.0849042,VALID,18.8218,VALID,101,VALID,0.65625,
2003-12-30, 03:31:01,VALID,918.487,VALID,0,VALID,93.1056,VALID,-0.101885,VALID,18.7697,VALID,117,VALID,0.87282,
2003-12-30, 03:32:01,VALID,918.482,VALID,0,VALID,93.5507,VALID,-0.101885,VALID,18.7344,VALID,123,VALID,1.10356,
2003-12-30, 03:33:00,VALID,918.468,VALID,0,VALID,93.7007,VALID,-0.101885,VALID,18.7081,VALID,125,VALID,1.16806,
2003-12-30, 03:34:00,VALID,918.469,VALID,0,VALID,93.627,VALID,-0.0679233,VALID,18.709,VALID,133,VALID,0.71984,
2003-12-30, 03:35:01,VALID,918.486,VALID,0,VALID,93.763,VALID,-0.0849042,VALID,18.6897,VALID,95,VALID,0.3367,